Location: Baia Mare
(47.6567°N, 23.5850°E)
Time: 05:54:12
(UTC+02:00)

ISS - Pass Details

Date: 01 March 2018
Orbit: 402 x 407 km, 51.6° (Epoch: 25 February)

Event Time Altitude Azimuth Distance (km) Brightness Sun altitude
Exits shadow 04:51:23 - 150° (SSE) 1,494 -0.8 -23.5°
Reaches altitude 10° 04:51:47 10° 144° (SE) 1,456 -0.8 -23.4°
Maximum altitude 04:52:22 10° 133° (SE) 1,434 -0.7 -23.3°
Drops below altitude 10° 04:52:58 10° 122° (ESE) 1,458 -0.5 -23.2°
Sets 04:56:39 0° 80° (E) 2,322 1.5 -22.6°
